Location: La Trinit�
(48.1620°N, 3.4512°W)
Time: 16:50:12
(UTC+00:00)

SPOT 5 - Pass Details

Date: 08 May 2021
Orbit: 622 x 815 km, 98.2° (Epoch: 24 June)

Event Time Altitude Azimuth Distance (km) Brightness Sun altitude
Exits shadow 20:53:43 15° 122° (ESE) 1,976 4.5 -11.2°
Maximum altitude 20:57:20 34° 64° (ENE) 1,270 4.0 -11.7°
Drops below altitude 10° 21:02:01 10° 2° (N) 2,380 6.2 -12.2°
Sets 21:04:34 0° 353° (N) 3,332 7.2 -12.5°
